QPF
0.00 0.00 0.00 0.00 0.00 0.00 0.00 0.00 0.00 0.00 0.00 0.00 0.00 0.00 0.00 0.00 0.00 0.00 0.00 0.00 0.00 0.00 0.00 0.00 0.00 0.00 0.00 0.00 0.00 0.00 0.00 0.00 0.00 0.00 0.00 0.00 0.00 0.00 0.00 0.00 0.00 0.00 0.00 0.00 0.00
0.00 0.00 0.00 0.00 0.00 0.00 0.00 0.00 0.00 0.00 0.00 0.00 0.00 0.00 0.00 0.00 0.00 0.00 0.00 0.00 0.00 0.00 0.00 0.00 0.00 0.00 0.00 0.00 0.00 0.00 0.00 0.00 0.00 0.00 0.00 0.00 0.00 0.00 0.00 0.00 0.00 0.00 0.00 0.00 0.00
0.00 0.00 0.00 0.00 0.00 0.00 0.00 0.00 0.00 0.00 0.00 0.00 0.00 0.00 0.00 0.00 0.00 0.00 0.00 0.00 0.00 0.00 0.00 0.00 0.00 0.00 0.00 0.00 0.00 0.00 0.00 0.00 0.00 0.00 0.00 0.00 0.00 0.00 0.00 0.00 0.00 0.00 0.00 0.00 0.00
0.00 0.00 0.00 0.00 0.00 0.00 0.00 0.00 0.00 0.00 0.00 0.00 0.00 0.00 0.00 0.00 0.00 0.00 0.00 0.00 0.00 0.00 0.00 0.00 0.00 0.00 0.00 0.00 0.00 0.00 0.00 0.00 0.00 0.00 0.00 0.00 0.00 0.00 0.00 0.00 0.00 0.00 0.00 0.00 0.00
0.00 0.00 0.00 0.00 0.00 0.00 0.00 0.00 0.00 0.00 0.00 0.00 0.00 0.00 0.00 0.00 0.00 0.00 0.00 0.00 0.00 0.00 0.00 0.00 0.00 0.00 0.00 0.00 0.00 0.00 0.00 0.00 0.00 0.00 0.00 0.00 0.00 0.00 0.00 0.00 0.00 0.00 0.00 0.00 0.00
0.00 0.00 0.00 0.00 0.00 0.00 0.00 0.00 0.00 0.00 0.00 0.00 0.00 0.00 0.00 0.00 0.00 0.00 0.00 0.00 0.00 0.00 0.00 0.00 0.00 0.00 0.00 0.00 0.00 0.00 0.00 0.00 0.00 0.00 0.00 0.00 0.00 0.00 0.00 0.00 0.00 0.00 0.00 0.00 0.00
0.00 0.00 0.00 0.00 0.00 0.00 0.00 0.00 0.00 0.00 0.00 0.00 0.00 0.00 0.00 0.00 0.00 0.00 0.00 0.00 0.00 0.00 0.00 0.00 0.00 0.00 0.00 0.00 0.00 0.00 0.00 0.00 0.00 0.00 0.00 0.00 0.00 0.00 0.00 0.00 0.00 0.00 0.00 0.00 0.00
0.00 0.00 0.00 0.00 0.00 0.00 0.00 0.00 0.00 0.00 0.00 0.00 0.00 0.00 0.00 0.00 0.00 0.00 0.00 0.00 0.00 0.00 0.00 0.00 0.00 0.00 0.00 0.00 0.00 0.00 0.00 0.00 0.00 0.00 0.00 0.00 0.00 0.00 0.00 0.00 0.00 0.00 0.00 0.00 0.00
0.00 0.00 0.00 0.00 0.00 0.00 0.00 0.00 0.00 0.00 0.00 0.00 0.00 0.00 0.00 0.00 0.00 0.00 0.00 0.00 0.00 0.00 0.00 0.00 0.00 0.00 0.00 0.00 0.00 0.00 0.00 0.00 0.00 0.00 0.00 0.00 0.00 0.00 0.00 0.00 0.00 0.00 0.00 0.00 0.00
0.00 0.00 0.00 0.00 0.00 0.00 0.00 0.00 0.00 0.00 0.00 0.00 0.00 0.00 0.00 0.00 0.00 0.00 0.00 0.00 0.00 0.00 0.00 0.00 0.00 0.00 0.00 0.00 0.00 0.00 0.00 0.00 0.00 0.00 0.00 0.00 0.00 0.00 0.00 0.00 0.00 0.00 0.00 0.00 0.00
0.00 0.00 0.00 0.00 0.00 0.00 0.00 0.00 0.00 0.00 0.00 0.00 0.00 0.00 0.00 0.00 0.00 0.00 0.00 0.00 0.00 0.00 0.00 0.00 0.00 0.00 0.00 0.00 0.00 0.00 0.00 0.00 0.00 0.00 0.00 0.00 0.00 0.00 0.00 0.00 0.00 0.00 0.00 0.00 0.00
0.00 0.00 0.00 0.00 0.00 0.00 0.00 0.00 0.00 0.00 0.00 0.00 0.00 0.00 0.00 0.00 0.00 0.00 0.00 0.00 0.00 0.00 0.00 0.00 0.00 0.00 0.00 0.00 0.00 0.00 0.00 0.00 0.00 0.00 0.00 0.00 0.00 0.00 0.00 0.00 0.00 0.00 0.00 0.00 0.00
0.00 0.00 0.00 0.00 0.00 0.00 0.00 0.00 0.00 0.00 0.00 0.00 0.00 0.00 0.00 0.00 0.00 0.00 0.00 0.00 0.00 0.00 0.00 0.00 0.00 0.00 0.00 0.00 0.00 0.00 0.00 0.00 0.00 0.00 0.00 0.00 0.00 0.00 0.00 0.00 0.00 0.00 0.00 0.00 0.00
0.00 0.00 0.00 0.00 0.00 0.00 0.00 0.00 0.00 0.00 0.00 0.00 0.00 0.00 0.00 0.00 0.00 0.00 0.00 0.00 0.00 0.00 0.00 0.00 0.00 0.00 0.00 0.00 0.00 0.00 0.00 0.00 0.00 0.00 0.00 0.00 0.00 0.00 0.00 0.00 0.00 0.00 0.00 0.00 0.00
0.00 0.00 0.00 0.00 0.00 0.00 0.00 0.00 0.00 0.00 0.00 0.00 0.00 0.00 0.00 0.00 0.00 0.00 0.00 0.00 0.00 0.00 0.00 0.00 0.00 0.00 0.00 0.00 0.00 0.00 0.00 0.00 0.00 0.00 0.00 0.00 0.00 0.00 0.00 0.00 0.00 0.00 0.00 0.00 0.00
0.00 0.00 0.00 0.00 0.00 0.00 0.00 0.00 0.00 0.00 0.00 0.00 0.00 0.00 0.00 0.00 0.00 0.00 0.00 0.00 0.00 0.00 0.00 0.00 0.00 0.00 0.00 0.00 0.00 0.00 0.00 0.00 0.00 0.00 0.00 0.00 0.00 0.00 0.00 0.00 0.00 0.00 0.00 0.00 0.00
0.00 0.00 0.00 0.00 0.00 0.00 0.00 0.01 0.01 0.01 0.00 0.00 0.00 0.00 0.00 0.00 0.00 0.00 0.00 0.00 0.00 0.00 0.00 0.00 0.00 0.00 0.00 0.00 0.00 0.00 0.00 0.00 0.00 0.00 0.00 0.00 0.00 0.00 0.00 0.00 0.00 0.00 0.00 0.00 0.00
0.00 0.00 0.00 0.00 0.00 0.00 0.01 0.04 0.02 0.00 0.00 0.00 0.00 0.00 0.00 0.00 0.00 0.00 0.00 0.00 0.00 0.00 0.00 0.00 0.00 0.00 0.00 0.00 0.00 0.00 0.00 0.00 0.00 0.00 0.00 0.00 0.00 0.00 0.00 0.00 0.00 0.00 0.00 0.00 0.00
0.00 0.00 0.00 0.00 0.00 0.01 0.02 0.02 0.00 0.00 0.00 0.00 0.00 0.00 0.00 0.00 0.00 0.00 0.00 0.00 0.00 0.00 0.00 0.00 0.00 0.00 0.00 0.00 0.00 0.00 0.00 0.00 0.00 0.00 0.00 0.00 0.00 0.00 0.00 0.00 0.00 0.00 0.00 0.00 0.00
0.00 0.00 0.00 0.00 0.00 0.00 0.01 0.00 0.00 0.00 0.00 0.00 0.00 0.00 0.00 0.00 0.00 0.00 0.00 0.00 0.00 0.00 0.00 0.00 0.00 0.00 0.00 0.00 0.00 0.00 0.00 0.00 0.00 0.00 0.00 0.00 0.00 0.00 0.00 0.00 0.00 0.00 0.00 0.00 0.00
0.00 0.00 0.00 0.00 0.00 0.00 0.00 0.00 0.00 0.00 0.00 0.00 0.00 0.00 0.00 0.00 0.00 0.00 0.00 0.00 0.00 0.00 0.00 0.00 0.00 0.00 0.00 0.00 0.00 0.00 0.00 0.00 0.00 0.00 0.01 0.00 0.00 0.00 0.00 0.00 0.00 0.00 0.00 0.00 0.00
0.00 0.00 0.00 0.00 0.00 0.00 0.00 0.00 0.00 0.00 0.00 0.00 0.00 0.00 0.00 0.00 0.00 0.00 0.00 0.00 0.00 0.00 0.00 0.00 0.02 0.00 0.00 0.00 0.00 0.00 0.00 0.00 0.03 0.01 0.01 0.02 0.01 0.00 0.00 0.00 0.00 0.00 0.00 0.00 0.00
0.00 0.00 0.00 0.00 0.00 0.00 0.00 0.00 0.00 0.00 0.00 0.00 0.00 0.00 0.00 0.00 0.00 0.00 0.00 0.00 0.00 0.00 0.00 0.01 0.01 0.00 0.00 0.00 0.00 0.00 0.00 0.00 0.01 0.01 0.01 0.02 0.01 0.00 0.00 0.00 0.00 0.00 0.00 0.00 0.00
0.00 0.00 0.00 0.00 0.00 0.00 0.00 0.00 0.00 0.00 0.00 0.00 0.00 0.00 0.00 0.00 0.00 0.00 0.00 0.00 0.00 0.00 0.00 0.00 0.00 0.00 0.00 0.00 0.00 0.00 0.00 0.00 0.00 0.00 0.00 0.01 0.00 0.00 0.00 0.00 0.00 0.00 0.00 0.00 0.00
0.00 0.00 0.00 0.00 0.00 0.00 0.00 0.00 0.00 0.00 0.00 0.00 0.00 0.00 0.00 0.00 0.00 0.00 0.00 0.00 0.00 0.00 0.00 0.00 0.00 0.00 0.00 0.00 0.00 0.00 0.00 0.00 0.00 0.00 0.01 0.00 0.00 0.00 0.00 0.00 0.00 0.00 0.00 0.00 0.00
0.00 0.00 0.00 0.00 0.00 0.00 0.00 0.00 0.00 0.00 0.00 0.00 0.00 0.00 0.00 0.00 0.00 0.00 0.00 0.00 0.00 0.00 0.00 0.00 0.00 0.00 0.00 0.00 0.00 0.00 0.00 0.00 0.00 0.00 0.00 0.00 0.00 0.00 0.00 0.00 0.00 0.00 0.00 0.00 0.00
0.00 0.00 0.00 0.00 0.00 0.00 0.00 0.00 0.00 0.00 0.00 0.00 0.00 0.00 0.00 0.00 0.00 0.00 0.00 0.00 0.00 0.00 0.00 0.00 0.00 0.00 0.00 0.00 0.00 0.00 0.00 0.00 0.00 0.00 0.00 0.00 0.00 0.00 0.00 0.00 0.00 0.00 0.00 0.00 0.00
MSLP
1018.86 1018.77 1018.63 1018.54 1018.41 1018.28 1018.06 1017.92 1017.73 1017.48 1017.28 1017.06 1016.80 1016.52 1016.27 1015.99 1015.47 1015.46 1014.25 1013.47 1013.20 1013.44 1013.82 1013.75 1013.69 1013.50 1013.42 1013.28 1013.54 1013.44 1013.31 1012.35 1011.48 1010.85 1010.56 1010.44 1010.60 1010.55 1010.61 1010.75 1010.56 1010.54 1010.60 1010.52 1010.90
1019.00 1018.79 1018.67 1018.54 1018.43 1018.29 1018.13 1017.88 1017.74 1017.53 1017.26 1017.01 1016.76 1016.44 1016.15 1015.92 1015.22 1014.16 1013.37 1013.01 1013.23 1013.55 1013.73 1013.56 1013.44 1013.44 1013.38 1013.18 1013.50 1013.62 1013.17 1012.22 1011.19 1011.02 1010.96 1010.87 1010.89 1010.99 1011.05 1010.96 1010.68 1010.34 1009.75 1009.64 1010.58
1018.98 1018.85 1018.67 1018.56 1018.42 1018.30 1018.11 1017.86 1017.63 1017.43 1017.19 1016.97 1016.76 1016.45 1016.14 1015.95 1015.05 1013.50 1013.30 1013.19 1013.29 1013.40 1013.24 1013.18 1013.04 1013.26 1013.36 1012.99 1013.23 1013.17 1012.94 1012.28 1011.74 1011.48 1011.48 1011.55 1011.54 1011.39 1011.38 1011.05 1010.91 1010.73 1010.26 1010.07 1010.50
1018.92 1018.85 1018.71 1018.58 1018.42 1018.24 1018.12 1017.80 1017.51 1017.25 1017.05 1016.87 1016.69 1016.40 1016.09 1015.64 1014.76 1013.41 1013.25 1013.36 1013.58 1013.58 1013.43 1013.17 1013.26 1013.36 1013.30 1013.11 1012.89 1012.85 1012.72 1012.65 1012.32 1011.85 1011.89 1012.04 1011.96 1011.92 1011.64 1010.92 1010.53 1010.28 1010.05 1009.92 1010.11
1018.86 1018.72 1018.62 1018.49 1018.34 1018.09 1017.81 1017.60 1017.24 1016.96 1016.78 1016.60 1016.47 1016.33 1015.97 1015.27 1013.78 1013.41 1013.47 1013.58 1013.70 1013.86 1013.56 1013.31 1013.27 1013.30 1013.22 1012.78 1012.72 1012.62 1012.56 1012.66 1012.29 1012.03 1012.03 1012.02 1012.04 1012.60 1011.06 1010.72 1010.24 1009.92 1009.53 1009.55 1009.63
1018.75 1018.66 1018.46 1018.34 1018.14 1017.89 1017.60 1017.33 1016.96 1016.62 1016.42 1016.33 1016.32 1016.43 1016.12 1014.89 1013.33 1013.37 1013.51 1013.85 1013.64 1013.77 1013.55 1013.38 1013.14 1013.14 1013.09 1013.03 1013.16 1012.71 1012.82 1012.79 1012.56 1012.35 1011.91 1012.02 1011.78 1012.40 1010.66 1010.24 1009.89 1009.43 1009.13 1009.13 1009.05
1018.42 1018.43 1018.33 1018.12 1017.91 1017.67 1017.39 1017.02 1016.64 1016.28 1016.06 1016.02 1016.13 1016.12 1015.27 1014.17 1013.51 1013.66 1013.75 1013.71 1013.70 1013.67 1013.69 1013.42 1013.39 1013.54 1013.26 1013.19 1013.31 1013.29 1013.33 1012.88 1012.18 1011.51 1011.39 1011.32 1011.84 1011.66 1010.43 1010.05 1009.62 1009.46 1009.00 1008.76 1008.79
1018.24 1018.21 1018.12 1017.96 1017.66 1017.46 1017.12 1016.69 1016.24 1015.96 1015.75 1015.70 1015.98 1015.82 1014.70 1013.85 1013.61 1013.78 1013.84 1013.90 1013.96 1013.86 1013.96 1013.87 1013.82 1014.03 1013.86 1013.48 1013.48 1013.54 1013.37 1012.74 1011.54 1011.15 1011.65 1011.66 1011.52 1011.19 1010.21 1010.09 1010.08 1009.54 1009.23 1009.29 1009.09
1018.02 1018.01 1017.92 1017.80 1017.58 1017.17 1016.79 1016.45 1016.19 1015.97 1015.80 1015.77 1015.85 1015.34 1014.30 1014.09 1013.96 1014.03 1013.86 1013.75 1013.96 1014.12 1014.18 1014.23 1014.31 1014.26 1014.00 1014.22 1014.33 1013.66 1013.16 1012.55 1011.88 1010.92 1011.62 1011.91 1011.61 1010.88 1010.41 1010.21 1010.14 1009.26 1009.23 1009.59 1009.46
1017.86 1017.82 1017.73 1017.58 1017.41 1017.00 1016.43 1016.12 1016.03 1016.19 1015.93 1015.39 1014.93 1015.11 1013.98 1013.81 1014.01 1014.08 1014.08 1013.88 1013.92 1014.25 1014.47 1014.44 1014.50 1014.36 1014.34 1014.50 1014.18 1013.62 1013.26 1012.86 1012.50 1011.93 1011.79 1011.89 1011.55 1011.15 1010.66 1010.13 1009.52 1009.21 1009.40 1009.90 1010.87
1017.60 1017.61 1017.61 1017.44 1017.14 1016.72 1016.23 1015.95 1016.45 1016.21 1015.41 1014.31 1014.05 1013.61 1013.43 1014.07 1014.12 1014.13 1014.14 1014.06 1013.96 1014.22 1014.34 1014.39 1014.54 1014.18 1013.89 1013.78 1013.61 1013.60 1013.56 1013.08 1012.64 1012.33 1012.15 1011.96 1011.24 1010.93 1010.43 1009.73 1009.18 1009.70 1009.92 1010.56 1011.85
1017.32 1017.24 1017.21 1017.15 1016.89 1016.46 1016.44 1015.91 1016.75 1017.02 1015.61 1013.74 1013.12 1013.25 1013.54 1013.86 1014.14 1014.29 1014.34 1014.26 1014.15 1014.14 1014.07 1014.89 1014.45 1013.59 1013.46 1013.57 1013.82 1013.86 1013.71 1013.41 1012.78 1012.29 1012.40 1012.11 1011.58 1010.80 1009.82 1009.39 1009.29 1009.87 1011.04 1012.02 1012.79
1017.04 1016.94 1016.91 1016.94 1016.71 1016.39 1015.98 1016.66 1016.65 1016.62 1016.23 1013.71 1013.48 1013.55 1013.81 1014.16 1013.95 1014.11 1014.38 1013.98 1013.96 1014.13 1013.94 1013.85 1013.39 1013.32 1013.64 1013.85 1013.87 1013.77 1013.67 1013.53 1013.43 1013.14 1012.87 1012.41 1011.51 1010.50 1009.52 1009.57 1010.70 1011.59 1012.33 1013.22 1014.45
1016.70 1016.87 1016.85 1016.85 1017.20 1015.96 1016.03 1016.58 1016.72 1016.72 1016.06 1014.12 1013.82 1013.81 1013.97 1013.94 1014.24 1014.43 1014.25 1014.39 1014.08 1013.90 1013.65 1013.69 1013.45 1013.61 1013.74 1013.80 1013.80 1013.77 1013.37 1013.60 1013.84 1013.89 1013.52 1013.23 1012.33 1011.38 1010.26 1011.06 1012.09 1013.21 1013.94 1015.16 1015.99
1016.47 1016.61 1016.78 1016.90 1016.12 1016.02 1016.45 1016.38 1016.80 1016.85 1015.68 1013.69 1013.87 1014.07 1013.79 1014.02 1014.28 1014.65 1014.57 1014.32 1014.04 1013.98 1014.17 1013.33 1013.71 1013.78 1013.58 1013.40 1013.55 1013.84 1013.88 1014.08 1014.31 1014.70 1014.46 1013.75 1013.28 1010.82 1010.42 1012.49 1013.41 1014.47 1015.34 1016.46 1017.22
1016.18 1016.29 1016.60 1016.56 1015.90 1016.20 1016.36 1016.51 1016.73 1016.60 1014.37 1013.46 1013.66 1013.81 1013.91 1013.88 1014.06 1014.45 1014.47 1014.56 1014.31 1013.98 1013.67 1013.46 1013.67 1013.74 1013.30 1013.24 1013.63 1013.91 1014.51 1014.79 1014.83 1015.09 1015.07 1013.55 1013.09 1011.63 1011.25 1012.59 1014.09 1015.15 1016.03 1016.90 1017.71
1016.11 1016.28 1016.44 1015.85 1015.84 1016.03 1016.35 1016.31 1016.51 1015.16 1013.05 1013.11 1013.03 1013.33 1013.26 1013.48 1013.70 1013.98 1014.30 1014.35 1014.17 1014.18 1013.80 1013.20 1013.16 1013.18 1013.38 1013.72 1014.11 1014.72 1015.42 1015.59 1015.83 1015.83 1015.09 1013.92 1013.39 1011.69 1011.38 1011.87 1013.19 1014.93 1016.47 1017.54 1018.10
1016.13 1016.39 1016.18 1015.90 1015.87 1016.06 1016.31 1016.22 1015.51 1013.93 1012.69 1012.69 1012.80 1013.08 1012.97 1012.85 1013.13 1013.44 1013.65 1013.78 1013.30 1013.30 1013.45 1013.57 1013.12 1013.35 1013.62 1013.65 1014.33 1014.91 1015.65 1016.39 1016.86 1016.89 1015.92 1014.43 1013.24 1011.95 1011.96 1013.14 1014.59 1016.00 1017.10 1018.06 1018.67
1016.18 1016.28 1016.44 1016.08 1015.96 1016.16 1016.11 1015.64 1014.49 1013.64 1012.79 1012.59 1012.75 1012.90 1012.79 1012.64 1012.84 1012.81 1012.97 1013.01 1013.17 1013.30 1013.98 1013.61 1013.59 1013.69 1013.73 1014.01 1014.58 1015.28 1016.06 1016.57 1017.62 1017.81 1017.54 1015.30 1013.34 1012.40 1012.95 1014.35 1015.60 1016.67 1017.64 1018.40 1018.98
1016.18 1016.34 1016.26 1016.11 1016.04 1016.16 1016.19 1015.14 1014.11 1013.11 1013.06 1013.10 1012.94 1012.66 1012.54 1012.48 1012.99 1013.16 1013.10 1012.94 1013.39 1013.89 1014.19 1015.05 1015.17 1014.55 1014.77 1014.96 1015.15 1015.50 1016.32 1017.07 1018.18 1018.49 1017.26 1015.41 1014.23 1013.35 1014.22 1015.19 1016.22 1017.31 1018.14 1018.92 1019.43
1016.24 1016.08 1016.38 1015.93 1016.14 1016.62 1016.15 1015.11 1014.26 1013.55 1013.44 1013.57 1013.21 1012.99 1012.93 1012.97 1013.17 1013.39 1013.14 1013.44 1013.75 1014.52 1015.07 1015.81 1016.33 1015.74 1015.50 1015.57 1015.50 1016.18 1016.66 1017.47 1017.90 1018.23 1017.39 1016.31 1014.69 1014.09 1014.91 1015.38 1016.61 1017.58 1018.53 1019.19 1019.65
1016.25 1016.54 1016.43 1016.34 1016.85 1015.83 1015.08 1014.63 1014.29 1014.12 1013.99 1014.03 1013.94 1013.83 1013.57 1013.53 1013.73 1013.92 1013.75 1014.12 1014.39 1015.09 1015.93 1016.49 1016.91 1016.89 1016.21 1015.69 1015.67 1015.96 1016.51 1017.24 1017.91 1017.91 1017.51 1016.60 1014.90 1014.53 1015.28 1016.02 1016.77 1017.78 1018.47 1019.08 1019.56
1016.36 1016.45 1016.76 1016.71 1016.22 1015.55 1014.80 1014.25 1014.21 1014.35 1014.25 1014.17 1014.25 1014.29 1014.17 1014.37 1014.49 1014.29 1014.56 1015.21 1015.59 1016.14 1017.12 1017.52 1017.89 1018.24 1017.48 1016.56 1016.44 1016.87 1017.78 1018.15 1018.52 1019.02 1018.02 1017.37 1015.62 1015.28 1015.77 1016.63 1017.24 1017.68 1018.07 1018.93 1019.57
1016.43 1016.56 1016.93 1016.63 1015.70 1015.32 1015.01 1014.21 1014.17 1014.22 1014.42 1014.23 1014.37 1014.74 1015.03 1015.22 1015.38 1015.42 1015.67 1016.25 1016.62 1017.46 1018.09 1018.39 1018.93 1019.43 1019.36 1018.37 1018.26 1018.69 1018.57 1018.54 1019.11 1019.23 1018.39 1017.53 1016.57 1015.96 1016.25 1016.90 1017.05 1017.46 1017.94 1018.86 1019.66
1016.12 1015.67 1015.51 1015.80 1015.42 1015.63 1015.33 1014.07 1013.79 1014.31 1014.82 1014.79 1014.87 1015.08 1015.69 1016.16 1016.51 1016.70 1017.06 1017.12 1017.55 1018.27 1018.88 1019.62 1020.37 1020.96 1020.75 1020.38 1020.10 1019.86 1019.65 1018.84 1019.11 1019.01 1019.17 1017.60 1017.43 1016.60 1016.73 1016.92 1017.35 1017.82 1018.35 1019.02 1019.58
1016.61 1016.13 1016.02 1015.28 1015.06 1015.49 1015.52 1015.00 1014.45 1014.42 1014.84 1015.33 1015.55 1016.03 1016.27 1016.81 1017.58 1018.34 1018.74 1018.91 1019.16 1019.33 1020.09 1020.46 1021.30 1022.15 1022.26 1022.19 1021.64 1020.77 1019.26 1019.07 1019.00 1018.61 1018.28 1018.20 1017.52 1017.40 1017.65 1017.56 1017.87 1018.23 1018.62 1019.18 1019.51
1016.77 1016.18 1016.14 1015.32 1015.06 1015.23 1014.69 1014.79 1014.79 1015.17 1015.55 1015.85 1016.31 1016.88 1017.37 1018.16 1018.83 1019.73 1020.26 1020.38 1020.52 1020.73 1021.23 1021.84 1022.67 1023.85 1023.55 1023.05 1022.52 1021.35 1018.88 1018.66 1018.45 1018.35 1018.38 1018.57 1018.43 1018.67 1018.50 1018.44 1018.63 1018.88 1019.12 1019.35 1019.69
Thickness
5697 5699 5701 5702 5704 5706 5708 5710 5711 5714 5716 5719 5722 5725 5727 5730 5734 5735 5738 5747 5749 5748 5744 5743 5740 5739 5740 5734 5732 5731 5701 5701 5714 5723 5726 5735 5730 5740 5745 5732 5734 5741 5738 5745 5746
5691 5694 5696 5698 5700 5702 5703 5706 5708 5710 5713 5716 5719 5722 5725 5727 5733 5739 5747 5748 5746 5743 5739 5733 5729 5731 5723 5726 5722 5710 5699 5711 5732 5730 5723 5728 5727 5726 5725 5723 5726 5733 5747 5752 5744
5686 5689 5691 5693 5695 5697 5699 5702 5704 5707 5710 5712 5715 5718 5721 5723 5727 5737 5742 5742 5741 5739 5739 5736 5734 5726 5714 5724 5717 5714 5699 5718 5723 5726 5725 5719 5717 5726 5716 5714 5720 5722 5732 5741 5740
5682 5683 5686 5688 5690 5693 5695 5698 5701 5704 5707 5709 5711 5714 5717 5722 5705 5734 5737 5736 5733 5732 5730 5726 5721 5711 5706 5704 5717 5703 5713 5713 5716 5721 5719 5712 5716 5709 5714 5722 5729 5730 5736 5738 5735
5675 5678 5681 5683 5685 5688 5691 5694 5698 5701 5703 5705 5707 5709 5714 5714 5720 5727 5729 5728 5725 5723 5718 5715 5709 5706 5698 5710 5711 5704 5708 5710 5712 5715 5713 5713 5707 5694 5719 5723 5731 5733 5736 5733 5734
5669 5671 5675 5677 5680 5683 5686 5689 5693 5697 5699 5700 5701 5700 5703 5698 5723 5720 5719 5718 5719 5714 5712 5711 5708 5709 5703 5701 5694 5706 5701 5700 5705 5703 5705 5700 5707 5698 5718 5721 5726 5729 5732 5733 5734
5663 5665 5667 5670 5673 5677 5680 5684 5688 5692 5694 5694 5693 5694 5699 5703 5714 5712 5711 5711 5711 5709 5701 5708 5705 5697 5699 5694 5695 5693 5679 5691 5703 5703 5698 5705 5692 5692 5711 5717 5720 5724 5726 5729 5729
5656 5658 5660 5663 5666 5669 5674 5678 5683 5686 5688 5688 5686 5688 5691 5706 5707 5705 5704 5701 5701 5702 5697 5697 5696 5687 5686 5693 5685 5676 5675 5665 5702 5701 5692 5687 5669 5696 5712 5708 5706 5714 5719 5714 5719
5649 5651 5653 5655 5658 5663 5668 5672 5674 5677 5678 5679 5679 5681 5686 5697 5695 5694 5695 5692 5690 5689 5688 5687 5682 5674 5678 5663 5652 5665 5650 5662 5672 5700 5687 5672 5662 5692 5703 5702 5697 5712 5711 5707 5709
5641 5642 5645 5648 5650 5655 5662 5665 5666 5666 5669 5672 5676 5667 5680 5684 5684 5685 5686 5686 5680 5675 5671 5669 5663 5656 5658 5646 5631 5647 5651 5656 5651 5671 5670 5663 5656 5669 5685 5696 5698 5704 5705 5701 5684
5634 5635 5637 5640 5644 5648 5653 5658 5656 5655 5662 5670 5669 5673 5675 5674 5675 5674 5676 5672 5672 5666 5654 5655 5645 5639 5651 5655 5658 5650 5642 5642 5654 5663 5653 5652 5664 5667 5675 5683 5694 5692 5689 5687 5675
5626 5628 5630 5631 5634 5639 5640 5646 5637 5635 5642 5668 5672 5665 5665 5665 5657 5660 5666 5657 5655 5647 5652 5634 5630 5652 5654 5651 5643 5639 5631 5630 5645 5654 5647 5643 5644 5661 5675 5678 5679 5679 5671 5663 5659
5617 5619 5621 5623 5625 5631 5635 5628 5628 5628 5625 5656 5656 5652 5650 5650 5650 5648 5651 5651 5643 5638 5640 5631 5645 5646 5639 5631 5630 5631 5627 5627 5624 5629 5636 5628 5628 5645 5667 5671 5656 5652 5649 5645 5637
5608 5609 5611 5612 5615 5623 5622 5618 5617 5617 5615 5634 5634 5639 5641 5642 5636 5637 5639 5633 5632 5628 5634 5631 5640 5633 5626 5621 5623 5613 5634 5627 5619 5612 5603 5617 5591 5629 5647 5636 5627 5623 5618 5610 5607
5597 5598 5598 5600 5610 5610 5608 5608 5606 5605 5593 5628 5619 5626 5629 5628 5626 5622 5627 5625 5621 5621 5619 5625 5615 5613 5615 5621 5624 5613 5617 5614 5610 5599 5595 5604 5591 5622 5635 5604 5605 5601 5597 5591 5588
5590 5589 5588 5591 5599 5597 5597 5597 5597 5592 5585 5613 5612 5612 5612 5614 5614 5612 5615 5613 5613 5613 5616 5612 5613 5613 5616 5621 5615 5611 5602 5597 5594 5589 5571 5605 5598 5611 5617 5607 5594 5589 5585 5580 5573
5582 5582 5581 5585 5588 5587 5586 5588 5580 5576 5615 5604 5607 5607 5609 5603 5602 5600 5598 5595 5596 5591 5594 5609 5609 5611 5609 5600 5598 5594 5581 5566 5566 5557 5564 5593 5586 5609 5621 5613 5602 5585 5571 5561 5555
5572 5570 5573 5576 5576 5575 5575 5573 5565 5586 5601 5605 5603 5598 5595 5600 5596 5592 5592 5588 5599 5597 5589 5582 5585 5596 5594 5594 5583 5578 5577 5555 5543 5551 5556 5581 5570 5595 5604 5588 5576 5566 5554 5546 5540
5561 5560 5558 5562 5563 5563 5564 5560 5566 5578 5595 5594 5591 5583 5584 5591 5588 5590 5586 5588 5590 5593 5576 5576 5580 5583 5586 5584 5577 5565 5554 5561 5537 5526 5529 5560 5589 5603 5583 5563 5555 5548 5536 5528 5524
5548 5548 5549 5548 5549 5551 5549 5555 5568 5583 5578 5577 5571 5582 5574 5580 5571 5571 5574 5579 5572 5572 5571 5558 5545 5571 5565 5563 5558 5556 5551 5535 5526 5500 5485 5548 5558 5571 5561 5548 5540 5525 5513 5507 5504
5531 5537 5535 5537 5536 5532 5530 5545 5558 5567 5566 5561 5561 5563 5567 5563 5563 5558 5562 5560 5560 5551 5550 5542 5533 5546 5554 5547 5545 5534 5530 5527 5523 5508 5501 5517 5536 5561 5540 5536 5520 5507 5499 5489 5484
5515 5519 5519 5518 5515 5530 5535 5544 5549 5548 5547 5545 5545 5544 5545 5548 5543 5545 5547 5544 5545 5541 5531 5524 5516 5508 5533 5546 5538 5529 5527 5523 5511 5509 5499 5509 5519 5546 5523 5510 5500 5490 5483 5475 5468
5501 5505 5502 5500 5506 5517 5530 5534 5534 5532 5533 5533 5530 5532 5538 5532 5523 5534 5535 5523 5523 5520 5509 5507 5493 5463 5484 5526 5520 5507 5494 5499 5492 5467 5479 5482 5490 5517 5501 5485 5480 5475 5470 5461 5451
5486 5484 5486 5489 5505 5514 5516 5523 5521 5524 5521 5523 5522 5519 5516 5514 5515 5513 5517 5507 5501 5495 5486 5491 5484 5459 5459 5493 5497 5471 5480 5482 5465 5450 5463 5463 5477 5499 5498 5480 5473 5454 5449 5441 5430
5475 5486 5490 5484 5492 5491 5497 5515 5514 5507 5506 5506 5505 5504 5499 5492 5494 5496 5496 5492 5486 5475 5476 5468 5436 5452 5453 5459 5454 5446 5449 5468 5454 5452 5426 5454 5452 5473 5473 5454 5441 5433 5427 5421 5412
5456 5464 5468 5478 5486 5480 5479 5488 5493 5492 5490 5487 5484 5489 5484 5478 5472 5450 5454 5462 5457 5458 5449 5444 5405 5416 5393 5422 5423 5421 5446 5443 5439 5440 5436 5436 5437 5452 5424 5425 5422 5415 5405 5400 5390
5438 5445 5448 5466 5467 5467 5476 5476 5474 5473 5473 5467 5468 5463 5457 5452 5442 5435 5431 5429 5432 5424 5420 5414 5389 5356 5358 5411 5386 5363 5423 5422 5425 5434 5429 5411 5413 5387 5392 5397 5389 5378 5372 5365 5359